sat.trackr.live / text

‹ back to catalog

STARLINK-32421

NORAD 61628 · 2024-191H

PAYLOAD ACTIVE UNKNOWN

§ Identity

Operator
Country
US
Launch date
2024-10-23
Launch site
AFETR
Launch vehicle
Mass (kg)
RCS (m²)

Purposes: comms

External: N2YO · Heavens-Above · Gunter

§ Orbital elements

Epoch: 2026-09-21T07:35:35.551680Z

Period
94.27 min
Inclination
43.0015°
Eccentricity
0.0001312
Mean motion
15.27584012 rev/d
Perigee alt
482.1 km
Apogee alt
483.9 km
Semi-major
6,861.2 km
B*
-3.8482e-5
RAAN
129.8192°
Arg perigee
262.4793°
Mean anomaly
97.5910°
Rev number
10,745

§ Raw data

STARLINK-324211 61628U 24191H   26264.31638370 -.00001321  00000+0 -38482-4 0  99982 61628  43.0015 129.8192 0001312 262.4793  97.5910 15.27584012107453

JSON: /api/v1/satellites/61628 · /tle

For live sub-satellite position, see the globe view (requires WebGL).

§ Visibility from observer

Set your observer location to see the next 7 days of passes ≥ 10°. The values pass through the URL so the page stays shareable.

No JS? Fill the form by hand. The geolocation button needs JavaScript.